Wellsville, NY

10:25 PM EST on February 05, 2016 (GMT -0500)
Wellsville Municipal-Tarantine

Weather History for KELZ - February, 2013

Change the Weather History Date:

Friday, February 1, 2013

  Actual Average (KBFD) Record (KBFD)
Temperature  
Mean Temperature 14 °F 22 °F  
Max Temperature 19 °F 30 °F 58 °F (2002)
Min Temperature 8 °F 14 °F -10 °F (1971)
Degree Days  
Heating Degree Days 52 38  
Month to date heating degree days 38  
Since 1 July heating degree days 4449  
Cooling Degree Days 0 0  
Month to date cooling degree days 0  
Year to date cooling degree days 0  
Moisture  
Dew Point 7 °F    
Average Humidity 70    
Maximum Humidity 79    
Minimum Humidity 54    
Precipitation  
Precipitation 0.01 in 0.08 in 0.88 in (1986)
Month to date precipitation 0.08  
Year to date precipitation 3.37  
Sea Level Pressure  
Sea Level Pressure 29.87 in    
Wind  
Wind Speed 14 mph (West)    
Max Wind Speed 29 mph    
Max Gust Speed 41 mph    
Visibility 4 miles    
Events Snow    
T = Trace of Precipitation, MM = Missing Value Source: NWS Daily Summary

Daily Weather History Graph

Daily Weather History Graph

Search for Another Location

Airport or City:

Trip Planner

Search our weather history database for the weather conditions in past years. The results will help you decide how hot, cold, wet, or windy it might be!

Date:

Astronomy

Feb. 01, 2013 Rise Set
Actual Time 7:24 AM EST 5:26 PM EST
Civil Twilight 6:55 AM EST 5:56 PM EST
Nautical Twilight 6:21 AM EST 6:30 PM EST
Astronomical Twilight 5:48 AM EST 7:02 PM EST
Moon 11:39 PM EST (2/1) 9:49 AM EST (2/1)
Length of Visible Light 11h 01m
Length of Day
10h 02m
Waning Gibbous, 70% of the Moon is Illuminated
Feb 1
Waning Gibbous
Feb 3
Last Quarter
Feb 10
New
Feb 17
First Quarter
Feb 25
Full

Hourly Weather History & Observations

Time (EST) Temp. Windchill Dew Point Humidity Pressure Visibility Wind Dir Wind Speed Gust Speed Precip Events Conditions
12:26 AM 17.6 °F 3.2 °F 6.8 °F 63% 29.63 in 10.0 mi West 15.0 mph 35.7 mph 0.00 in   Overcast
12:53 AM 17.6 °F 2.2 °F 8.6 °F 68% 29.64 in 2.0 mi West 17.3 mph 24.2 mph 0.00 in Snow Light Snow
12:56 AM 17.1 °F 3.6 °F 9.0 °F 71% 29.73 in 2.0 mi West 12.7 mph 24.2 mph 0.00 in Snow Light Snow
1:04 AM 17.6 °F 5.0 °F 10.4 °F 73% 29.64 in 1.2 mi West 11.5 mph - 0.00 in Snow Light Snow
1:26 AM 17.6 °F 5.7 °F 10.4 °F 73% 29.64 in 2.5 mi West 10.4 mph - 0.00 in Snow Light Snow
1:33 AM 17.6 °F 6.4 °F 8.6 °F 68% 29.63 in 6.0 mi West 9.2 mph 28.8 mph 0.00 in Snow Light Snow
1:56 AM 16.0 °F 2.9 °F 6.1 °F 65% 29.73 in 10.0 mi West 11.5 mph 20.7 mph 0.00 in   Overcast
2:05 AM 15.8 °F 2.7 °F 6.8 °F 68% 29.64 in 10.0 mi WSW 11.5 mph 20.7 mph N/A   Overcast
2:15 AM 15.8 °F 5.1 °F 6.8 °F 68% 29.64 in 10.0 mi West 8.1 mph 17.3 mph N/A   Overcast
2:56 AM 15.1 °F 2.5 °F 7.0 °F 70% 29.74 in 5.0 mi West 10.4 mph - 0.00 in Snow Light Snow
3:18 AM 15.8 °F 5.1 °F 8.6 °F 73% 29.65 in 2.5 mi WSW 8.1 mph - 0.00 in Snow Light Snow
3:36 AM 15.8 °F 5.1 °F 8.6 °F 73% 29.65 in 1.5 mi West 8.1 mph - 0.00 in Snow Light Snow
3:56 AM 15.1 °F 5.2 °F 9.0 °F 77% 29.76 in 1.8 mi Variable 6.9 mph - 0.00 in Snow Light Snow
4:05 AM 15.8 °F 6.1 °F 10.4 °F 79% 29.66 in 1.0 mi West 6.9 mph - 0.00 in Snow Light Snow
4:15 AM 15.8 °F 3.4 °F 10.4 °F 79% 29.66 in 0.8 mi West 10.4 mph - 0.00 in Snow Light Snow
4:21 AM 15.8 °F 6.1 °F 8.6 °F 73% 29.66 in 2.0 mi West 6.9 mph - 0.00 in Snow Light Snow
4:29 AM 15.8 °F 4.2 °F 8.6 °F 73% 29.66 in 5.0 mi West 9.2 mph - 0.00 in Snow Light Snow
4:36 AM 15.8 °F 5.1 °F 8.6 °F 73% 29.67 in 6.0 mi West 8.1 mph - 0.00 in Snow Light Snow
4:44 AM 15.8 °F 5.1 °F 8.6 °F 73% 29.68 in 1.8 mi NW 8.1 mph - 0.00 in Snow Light Snow
4:47 AM 15.8 °F 2.1 °F 10.4 °F 79% 29.68 in 0.5 mi NW 12.7 mph - 0.00 in Snow Snow
4:56 AM 15.1 °F -1.6 °F 9.0 °F 77% 29.78 in 0.2 mi WNW 18.4 mph 25.3 mph 0.01 in Snow Heavy Snow
5:03 AM 15.8 °F -0.2 °F 8.6 °F 73% 29.68 in 0.8 mi WNW 17.3 mph 25.3 mph 0.00 in Snow Light Snow
5:07 AM 15.8 °F 0.9 °F 8.6 °F 73% 29.68 in 1.2 mi WNW 15.0 mph - 0.00 in Snow Light Snow
5:11 AM 14.0 °F -1.4 °F 8.6 °F 79% 29.68 in 2.0 mi WNW 15.0 mph 23.0 mph 0.00 in Snow Light Snow
5:19 AM 15.8 °F 0.3 °F 6.8 °F 68% 29.68 in 6.0 mi WNW 16.1 mph 25.3 mph 0.00 in Snow Light Snow
5:29 AM 14.0 °F -0.8 °F 6.8 °F 73% 29.69 in 9.0 mi WNW 13.8 mph - 0.00 in   Overcast
5:56 AM 14.0 °F 0.5 °F 5.0 °F 67% 29.81 in 10.0 mi West 11.5 mph 20.7 mph 0.00 in   Overcast
6:56 AM 14.0 °F -0.8 °F 6.1 °F 71% 29.85 in 10.0 mi West 13.8 mph - N/A   Overcast
7:22 AM 14.0 °F -2.0 °F 6.8 °F 73% 29.76 in 2.5 mi West 16.1 mph 21.9 mph 0.00 in Snow Light Snow
7:30 AM 14.0 °F -0.2 °F 6.8 °F 73% 29.77 in 1.2 mi West 12.7 mph 18.4 mph 0.00 in Snow Light Snow
7:42 AM 14.0 °F 1.2 °F 6.8 °F 73% 29.78 in 2.0 mi West 10.4 mph - 0.00 in Snow Light Snow
7:56 AM 14.0 °F -0.8 °F 7.0 °F 74% 29.90 in 4.0 mi West 13.8 mph 18.4 mph 0.00 in Snow Light Snow
8:38 AM 15.8 °F 1.4 °F 6.8 °F 68% 29.80 in 10.0 mi West 13.8 mph 20.7 mph 0.00 in Snow Light Snow
8:56 AM 15.1 °F 1.1 °F 7.0 °F 70% 29.92 in 8.0 mi West 12.7 mph - 0.00 in Snow Light Snow
9:09 AM 15.8 °F 1.4 °F 6.8 °F 68% 29.81 in 8.0 mi West 13.8 mph 24.2 mph 0.00 in Snow Light Snow
9:20 AM 15.8 °F 0.9 °F 8.6 °F 73% 29.82 in 0.8 mi West 15.0 mph 21.9 mph 0.00 in Snow Light Snow
9:28 AM 15.8 °F -0.2 °F 6.8 °F 68% 29.82 in 2.5 mi WNW 17.3 mph 27.6 mph 0.00 in Snow Light Snow
9:34 AM 15.8 °F -1.5 °F 6.8 °F 68% 29.82 in 6.0 mi West 20.7 mph 25.3 mph 0.00 in Snow Light Snow
9:56 AM 16.0 °F -2.5 °F 6.1 °F 65% 29.94 in 2.0 mi West 24.2 mph 33.4 mph 0.00 in Snow Light Snow
9:59 AM 15.8 °F -1.9 °F 6.8 °F 68% 29.83 in 1.2 mi WNW 21.9 mph 33.4 mph 0.00 in Snow Light Snow
10:24 AM 15.8 °F -0.2 °F 8.6 °F 73% 29.84 in 3.0 mi WNW 17.3 mph - 0.00 in Snow Light Snow
10:42 AM 17.6 °F -0.6 °F 6.8 °F 63% 29.85 in 1.8 mi WNW 25.3 mph 36.8 mph 0.00 in   Mostly Cloudy
10:56 AM 17.1 °F -2.4 °F 6.1 °F 62% 29.96 in 1.2 mi WNW 28.8 mph 36.8 mph 0.00 in   Mostly Cloudy
11:02 AM 15.8 °F -2.7 °F 6.8 °F 68% 29.86 in 0.8 mi NW 24.2 mph 41.4 mph 0.00 in Snow Light Snow
11:06 AM 15.8 °F -1.1 °F 5.0 °F 62% 29.86 in 1.0 mi WNW 19.6 mph 41.4 mph 0.00 in Snow Light Snow
11:14 AM 17.6 °F -0.3 °F 5.0 °F 58% 29.86 in 3.0 mi WNW 24.2 mph 32.2 mph 0.00 in   Partly Cloudy
11:23 AM 17.6 °F 1.7 °F 5.0 °F 58% 29.87 in 2.0 mi WNW 18.4 mph 35.7 mph 0.00 in   Partly Cloudy
11:46 AM 17.6 °F -0.6 °F 5.0 °F 58% 29.87 in 4.0 mi WNW 25.3 mph 36.8 mph 0.00 in   Partly Cloudy
11:56 AM 18.0 °F 0.6 °F 5.0 °F 57% 29.98 in 3.0 mi WNW 23.0 mph 34.5 mph 0.00 in   Mostly Cloudy
12:56 PM 18.0 °F 1.7 °F 3.9 °F 54% 29.99 in 7.0 mi West 19.6 mph 31.1 mph 0.00 in   Overcast
1:56 PM 19.0 °F 1.6 °F 5.0 °F 54% 30.00 in 4.0 mi WNW 24.2 mph 32.2 mph 0.00 in Snow Light Snow
2:40 PM 17.6 °F 1.3 °F 6.8 °F 63% 29.92 in 2.5 mi West 19.6 mph 28.8 mph 0.00 in Snow Light Snow
2:45 PM 17.6 °F 2.7 °F 8.6 °F 68% 29.92 in 0.8 mi NW 16.1 mph 25.3 mph 0.00 in Snow Light Snow
2:56 PM 17.1 °F 3.0 °F 10.0 °F 74% 30.04 in 1.5 mi NW 13.8 mph 23.0 mph 0.00 in Snow Light Snow
3:04 PM 15.8 °F -1.1 °F 10.4 °F 79% 29.93 in 0.2 mi WNW 19.6 mph 31.1 mph 0.00 in Snow Heavy Snow
3:10 PM 15.8 °F -0.6 °F 8.6 °F 73% 29.93 in 0.5 mi WNW 18.4 mph 25.3 mph 0.00 in Snow Snow
3:15 PM 15.8 °F 0.9 °F 6.8 °F 68% 29.93 in 1.5 mi WNW 15.0 mph 24.2 mph 0.00 in Snow Light Snow
3:17 PM 15.8 °F 0.9 °F 6.8 °F 68% 29.94 in 4.0 mi WNW 15.0 mph 24.2 mph 0.00 in Snow Light Snow
3:34 PM 15.8 °F -1.5 °F 5.0 °F 62% 29.95 in 10.0 mi West 20.7 mph 26.5 mph 0.00 in   Mostly Cloudy
3:56 PM 18.0 °F 1.7 °F 5.0 °F 57% 30.07 in 9.0 mi WNW 19.6 mph 29.9 mph 0.00 in   Mostly Cloudy
4:08 PM 17.6 °F -0.3 °F 6.8 °F 63% 29.97 in 1.8 mi WNW 24.2 mph 32.2 mph 0.00 in Snow Light Snow
4:17 PM 15.8 °F -1.5 °F 3.2 °F 58% 29.97 in 4.0 mi WNW 20.7 mph 29.9 mph 0.00 in Snow Light Snow
4:56 PM 16.0 °F -1.3 °F 5.0 °F 62% 30.09 in 3.0 mi West 20.7 mph 27.6 mph 0.00 in Snow Light Snow
4:59 PM 15.8 °F -2.3 °F 6.8 °F 68% 29.98 in 1.8 mi West 23.0 mph 38.0 mph 0.00 in Snow Light Snow
5:04 PM 15.8 °F -0.6 °F 6.8 °F 68% 29.98 in 0.8 mi West 18.4 mph 38.0 mph 0.00 in Snow Light Snow
5:13 PM 14.0 °F -2.5 °F 8.6 °F 79% 29.99 in 0.2 mi West 17.3 mph 24.2 mph 0.00 in Snow Heavy Snow
5:29 PM 14.0 °F 2.9 °F 8.6 °F 79% 29.99 in 0.5 mi WSW 8.1 mph 21.9 mph 0.00 in Snow Snow
5:52 PM 14.0 °F -1.4 °F 8.6 °F 79% 30.00 in 1.5 mi West 15.0 mph 21.9 mph 0.00 in Snow Light Snow
5:56 PM 14.0 °F -1.4 °F 7.0 °F 74% 30.13 in 1.8 mi West 15.0 mph 21.9 mph 0.00 in Snow Light Snow
6:04 PM 14.0 °F -0.2 °F 6.8 °F 73% 30.01 in 3.0 mi West 12.7 mph 19.6 mph 0.00 in Snow Light Snow
6:34 PM 14.0 °F 0.5 °F 6.8 °F 73% 30.02 in 2.5 mi West 11.5 mph 20.7 mph 0.00 in Snow Light Snow
6:56 PM 14.0 °F -0.8 °F 6.1 °F 71% 30.15 in 4.0 mi West 13.8 mph 25.3 mph 0.00 in Snow Light Snow
7:03 PM 14.0 °F -0.8 °F 6.8 °F 73% 30.03 in 4.0 mi West 13.8 mph 23.0 mph 0.00 in Snow Light Snow
7:37 PM 12.2 °F -3.1 °F 6.8 °F 79% 30.04 in 3.0 mi West 13.8 mph 21.9 mph 0.00 in Snow Light Snow
7:56 PM 12.9 °F -0.9 °F 5.0 °F 71% 30.17 in 4.0 mi West 11.5 mph - 0.00 in Snow Light Snow
8:56 PM 12.0 °F -2.0 °F 5.0 °F 73% 30.19 in 3.0 mi WSW 11.5 mph 20.7 mph 0.00 in Snow Light Snow
9:56 PM 10.9 °F -0.8 °F 5.0 °F 77% 30.21 in 2.5 mi WSW 8.1 mph 16.1 mph 0.00 in Snow Light Snow
10:07 PM 10.4 °F -2.4 °F 3.2 °F 73% 30.08 in 3.0 mi WSW 9.2 mph - 0.00 in Snow Light Snow
10:24 PM 10.4 °F -4.1 °F 3.2 °F 73% 30.09 in 2.5 mi West 11.5 mph 18.4 mph 0.00 in Snow Light Snow
10:56 PM 10.0 °F -3.7 °F 3.0 °F 73% 30.22 in 4.0 mi WSW 10.4 mph 18.4 mph 0.00 in Snow Light Snow
11:41 PM 8.6 °F -5.5 °F 1.4 °F 73% 30.09 in 10.0 mi West 10.4 mph 19.6 mph 0.00 in   Scattered Clouds
11:56 PM 9.0 °F -7.9 °F 1.0 °F 70% 30.22 in 10.0 mi West 15.0 mph 25.3 mph 0.00 in   Scattered Clouds